Orange, MA

6:24 PM EDT on July 22, 2017 (GMT -0400)
Orange Municipal

Weather History for KORE - November, 2011

Change the Weather History Date:

Friday, November 25, 2011

  Actual Average Record
Temperature  
Mean Temperature 40 °F -  
Max Temperature 57 °F 42 °F 62 °F (2004)
Min Temperature 23 °F 24 °F 7 °F (2000)
Degree Days  
Heating Degree Days 25    
Moisture  
Dew Point 30 °F    
Average Humidity 91    
Maximum Humidity 100    
Minimum Humidity 46    
Precipitation  
Precipitation 0.00 in - - ()
Sea Level Pressure  
Sea Level Pressure 30.08 in    
Wind  
Wind Speed 1 mph (SW)    
Max Wind Speed 8 mph    
Max Gust Speed -    
Visibility 4 miles    
Events Fog    
Averages and records for this station are not official NWS values.
T = Trace of Precipitation, MM = Missing Value Source: NWS Daily Summary

Daily Weather History Graph

Daily Weather History Graph

Search for Another Location

Airport or City:

Trip Planner

Search our weather history database for the weather conditions in past years. The results will help you decide how hot, cold, wet, or windy it might be!

Date:

Astronomy

Nov. 25, 2011 Rise Set
Actual Time 6:52 AM EST 4:19 PM EST
Civil Twilight 6:21 AM EST 4:50 PM EST
Nautical Twilight 5:46 AM EST 5:25 PM EST
Astronomical Twilight 5:12 AM EST 5:59 PM EST
Moon 7:18 AM EST (11/25) 4:43 PM EST (11/25)
Length of Visible Light 10h 29m
Length of Day
9h 27m
New Moon, 0% of the Moon is Illuminated
Nov 25
New Moon
Dec 2
First Quarter
Dec 10
Full
Dec 17
Last Quarter
Dec 24
New

Hourly Weather History & Observations

Time (EST) Temp. Windchill Dew Point Humidity Pressure Visibility Wind Dir Wind Speed Gust Speed Precip Events Conditions
12:07 AM 26.6 °F - 26.6 °F 100% 30.11 in 1.0 mi Calm Calm - N/A   Overcast
12:16 AM 26.6 °F - 26.6 °F 100% 30.10 in 3.0 mi Calm Calm - N/A   Overcast
12:33 AM 26.6 °F - 26.6 °F 100% 30.10 in 1.8 mi Calm Calm - N/A   Overcast
12:36 AM 26.6 °F - 26.6 °F 100% 30.10 in 1.0 mi Calm Calm - N/A   Overcast
12:44 AM 26.6 °F - 26.6 °F 100% 30.10 in 0.5 mi Calm Calm - N/A Fog Light Freezing Fog
12:52 AM 27.0 °F - 26.1 °F 96% 30.12 in 0.5 mi Calm Calm - N/A Fog Light Freezing Fog
1:52 AM 27.0 °F - 26.1 °F 96% 30.12 in 0.2 mi Calm Calm - N/A Fog Light Freezing Fog
2:52 AM 26.1 °F - 25.0 °F 96% 30.12 in 0.5 mi Calm Calm - N/A Fog Light Freezing Fog
3:34 AM 26.6 °F - 24.8 °F 93% 30.09 in 0.8 mi Calm Calm - N/A   Clear
3:52 AM 25.0 °F - 24.1 °F 96% 30.11 in 1.0 mi Calm Calm - N/A   Clear
3:54 AM 24.8 °F - 24.8 °F 100% 30.09 in 1.5 mi Calm Calm - N/A   Clear
4:16 AM 24.8 °F - 23.0 °F 93% 30.09 in 1.8 mi Calm Calm - N/A   Clear
4:25 AM 24.8 °F - 24.8 °F 100% 30.09 in 3.0 mi Calm Calm - N/A   Clear
4:52 AM 24.1 °F - 23.0 °F 96% 30.11 in 5.0 mi Calm Calm - N/A   Clear
5:52 AM 23.0 °F - 21.9 °F 96% 30.11 in 7.0 mi Calm Calm - N/A   Clear
6:52 AM 23.0 °F - 21.9 °F 96% 30.12 in 6.0 mi Calm Calm - N/A   Clear
7:52 AM 27.0 °F - 25.0 °F 92% 30.12 in 6.0 mi Calm Calm - N/A   Clear
8:52 AM 32.0 °F - 30.0 °F 92% 30.12 in 6.0 mi Calm Calm - N/A   Clear
9:52 AM 41.0 °F 37.1 °F 37.9 °F 89% 30.10 in 10.0 mi South 5.8 mph - N/A   Clear
10:52 AM 50.0 °F - 37.0 °F 61% 30.08 in 10.0 mi Calm Calm - N/A   Clear
11:52 AM 55.0 °F - 37.0 °F 51% 30.06 in 10.0 mi West 6.9 mph - N/A   Clear
12:52 PM 57.0 °F - 37.9 °F 49% 30.04 in 10.0 mi West 4.6 mph - N/A   Clear
1:52 PM 57.9 °F - 37.0 °F 46% 30.04 in 10.0 mi WSW 5.8 mph - N/A   Clear
2:52 PM 57.0 °F - 37.0 °F 47% 30.04 in 10.0 mi SSW 8.1 mph - N/A   Clear
3:52 PM 52.0 °F - 39.9 °F 63% 30.04 in 10.0 mi SSW 8.1 mph - N/A   Clear
4:52 PM 46.0 °F - 37.9 °F 73% 30.05 in 10.0 mi Calm Calm - N/A   Clear
5:52 PM 41.0 °F - 37.0 °F 86% 30.06 in 10.0 mi Calm Calm - N/A   Clear
6:52 PM 36.0 °F - 35.1 °F 97% 30.07 in 10.0 mi Calm Calm - N/A   Clear
7:52 PM 34.0 °F - 34.0 °F 100% 30.06 in 6.0 mi Calm Calm - N/A   Clear
8:52 PM 34.0 °F - 33.1 °F 96% 30.07 in 2.5 mi Calm Calm - N/A   Clear
9:07 PM 32.0 °F - 32.0 °F 100% 30.05 in 1.2 mi Calm Calm - N/A   Clear
9:12 PM 33.8 °F - 30.2 °F 87% 30.06 in 1.5 mi Calm Calm - N/A   Partly Cloudy
9:15 PM 32.0 °F - 30.2 °F 93% 30.06 in 1.0 mi Calm Calm - N/A   Mist
9:23 PM 32.0 °F - 30.2 °F 93% 30.05 in 0.8 mi Calm Calm - N/A   Mist
9:27 PM 30.2 °F - 30.2 °F 100% 30.05 in 1.2 mi Calm Calm - N/A   Partly Cloudy
9:44 PM 30.2 °F - 30.2 °F 100% 30.06 in 1.5 mi Calm Calm - N/A   Clear
9:52 PM 32.0 °F - 30.9 °F 96% 30.07 in 1.5 mi Calm Calm - N/A   Clear
10:07 PM 30.2 °F - 30.2 °F 100% 30.05 in 3.0 mi Calm Calm - N/A   Clear
10:14 PM 30.2 °F - 30.2 °F 100% 30.05 in 1.8 mi Calm Calm - N/A   Clear
10:19 PM 30.2 °F - 30.2 °F 100% 30.05 in 1.0 mi Calm Calm - N/A   Clear
10:28 PM 30.2 °F - 30.2 °F 100% 30.05 in 0.8 mi Calm Calm - N/A   Mist
10:33 PM 30.2 °F - 30.2 °F 100% 30.05 in 1.2 mi Calm Calm - N/A   Partly Cloudy
10:36 PM 30.2 °F - 30.2 °F 100% 30.05 in 2.0 mi Calm Calm - N/A   Partly Cloudy
10:49 PM 30.2 °F - 30.2 °F 100% 30.05 in 1.2 mi Calm Calm - N/A   Partly Cloudy
10:52 PM 30.0 °F - 30.0 °F 100% 30.07 in 1.0 mi Calm Calm - N/A   Mist
11:02 PM 30.2 °F - 28.4 °F 93% 30.05 in 0.5 mi Calm Calm - N/A Fog Light Freezing Fog
11:15 PM 28.4 °F - 28.4 °F 100% 30.05 in 1.2 mi Calm Calm - N/A   Partly Cloudy
11:37 PM 30.2 °F - 28.4 °F 93% 30.06 in 3.0 mi Calm Calm - N/A   Clear
11:52 PM 30.0 °F - 28.9 °F 96% 30.08 in 4.0 mi Calm Calm - N/A   Clear